HST,Max TemperatureF,Mean TemperatureF,Min TemperatureF,Max Dew PointF,MeanDew PointF,Min DewpointF,Max Humidity, Mean Humidity, Min Humidity, Max Sea Level PressureIn, Mean Sea Level PressureIn, Min Sea Level PressureIn, Max VisibilityMiles, Mean VisibilityMiles, Min VisibilityMiles, Max Wind SpeedMPH, Mean Wind SpeedMPH, Max Gust SpeedMPH,PrecipitationIn, CloudCover, Events, WindDirDegrees
2013-11-1,80,76,71,70,68,64,83,74,65,30.10,30.04,29.99,15,15,15,16,12,23,0.00,3,Rain,50
2013-11-2,82,78,73,66,66,64,78,66,54,30.09,30.04,30.00,15,15,15,20,13,32,0.00,4,Rain,45
2013-11-3,82,78,73,64,64,64,73,62,54,30.09,30.03,29.98,15,15,10,23,14,33,0.00,3,,57
2013-11-4,82,76,71,68,66,64,83,67,54,30.05,30.00,29.95,15,15,15,18,13,29,0.00,1,Rain,58
2013-11-5,82,76,71,68,66,64,88,66,54,30.01,29.97,29.92,15,15,15,20,12,25,0.00,5,Rain,52
2013-11-6,84,78,71,70,66,63,73,62,54,30.00,29.94,29.89,15,15,15,14,9,,0.00,4,,358
2013-11-7,86,78,71,70,67,63,73,64,58,29.99,29.95,29.90,15,15,15,18,7,,0.00,3,,39
2013-11-8,84,78,73,70,67,61,78,68,55,30.00,29.94,29.88,15,15,15,18,8,22,0.00,6,Rain,72
2013-11-9,80,74,69,72,68,64,94,78,65,29.94,29.89,29.83,15,12,1,18,11,30,0.00,5,Rain,32
2013-11-10,77,73,69,70,67,64,94,84,73,29.93,29.90,29.87,15,10,0,23,18,36,0.00,6,Rain,44
2013-11-11,78,74,69,61,60,59,73,60,54,29.99,29.94,29.90,15,15,15,23,18,32,0.00,4,,41
2013-11-12,80,73,66,61,59,57,78,58,48,30.02,29.97,29.93,15,15,15,17,12,24,0.00,2,,33
2013-11-13,80,74,68,64,62,59,78,62,48,30.01,29.97,29.92,15,15,15,13,8,18,0.00,5,,55
2013-11-14,77,73,69,72,69,66,94,84,78,30.02,29.97,29.93,10,9,5,14,6,18,0.00,6,Rain,29
2013-11-15,84,78,71,73,70,66,89,72,58,30.06,30.01,29.98,15,14,12,16,7,24,0.00,6,,101
2013-11-16,82,78,73,72,67,64,78,67,58,30.06,30.01,29.96,15,15,15,20,16,30,0.00,3,,41
2013-11-17,82,78,73,70,67,63,78,65,54,30.03,29.96,29.92,15,15,10,10,5,,0.00,4,,240
2013-11-18,84,78,71,68,66,63,78,64,55,29.99,29.94,29.89,15,15,15,12,8,,0.00,3,,353
2013-11-19,84,76,68,70,66,63,83,68,55,30.00,29.95,29.89,15,14,10,8,6,,0.00,2,,254
2013-11-20,80,74,69,70,66,59,78,70,65,30.00,29.96,29.92,15,14,12,8,4,,0.00,6,,100
2013-11-21,82,76,71,72,68,64,83,72,58,30.06,29.99,29.94,15,12,10,12,4,,0.00,5,,27
2013-11-22,80,74,69,70,67,64,83,72,65,30.06,30.01,29.96,15,15,15,17,10,23,0.00,2,,36
2013-11-23,78,74,69,64,64,63,83,67,57,30.05,29.99,29.93,15,15,15,20,14,,0.00,2,,29
2013-11-24,82,76,69,63,60,57,69,57,45,30.00,29.96,29.91,15,15,10,23,14,29,0.00,1,,65
2013-11-25,82,76,71,64,63,61,73,63,54,30.05,30.01,29.98,15,15,15,20,13,,0.00,2,,43
2013-11-26,80,76,71,68,67,64,83,73,65,30.11,30.05,29.98,15,12,8,16,12,21,0.00,5,Rain,47
2013-11-27,84,78,71,66,63,57,69,60,51,30.07,30.02,29.96,15,15,15,16,11,,0.00,3,,51
2013-11-28,82,76,69,68,65,63,78,66,58,30.03,29.98,29.93,15,15,15,10,6,,0.00,2,,306
2013-11-29,82,76,69,68,65,63,78,65,51,29.99,29.93,29.88,15,15,15,10,5,,0.00,5,,152
2013-11-30,78,76,73,70,68,64,83,75,65,29.99,29.95,29.92,15,12,7,15,10,,0.00,7,Rain,183